Change the Weather History Date:

Tuesday, July 9, 2013

  Actual Average (KTHV) Record (KTHV)
Temperature  
Mean Temperature 78 °F -  
Max Temperature 84 °F 85 °F 93 °F (1999)
Min Temperature 71 °F 66 °F 52 °F (2000)
Cooling Degree Days 12    
Growing Degree Days 28 (Base 50)    
Moisture  
Dew Point 70 °F    
Average Humidity 80    
Maximum Humidity 89    
Minimum Humidity 66    
Precipitation  
Precipitation 0.01 in - - ()
Sea Level Pressure  
Sea Level Pressure 30.10 in    
Wind  
Wind Speed 4 mph (SSW)    
Max Wind Speed 10 mph    
Max Gust Speed -    
Visibility 10 miles    
Events Rain    
Averages and records for this station are not official NWS values.
T = Trace of Precipitation, MM = Missing Value Source: NWS Daily Summary

Daily Weather History Graph

Daily Weather History Graph

Search for Another Location

Airport or City:

Trip Planner

Search our weather history database for the weather conditions in past years. The results will help you decide how hot, cold, wet, or windy it might be!

Date:

Astronomy

Jul. 09, 2013 Rise Set
Actual Time 5:48 AM EDT 8:37 PM EDT
Civil Twilight 5:16 AM EDT 9:09 PM EDT
Nautical Twilight 4:36 AM EDT 9:49 PM EDT
Astronomical Twilight 3:50 AM EDT 10:35 PM EDT
Moon 7:10 AM EDT (7/9) 9:14 PM EDT (7/9)
Length of Visible Light 15h 52m
Length of Day
14h 48m
New Moon, 2% of the Moon is Illuminated
Jul 9
New Moon
Jul 15
First Quarter
Jul 22
Full
Jul 29
Last Quarter
Aug 6
New

Hourly Weather History & Observations

Time (EDT) Temp. Heat Index Dew Point Humidity Pressure Visibility Wind Dir Wind Speed Gust Speed Precip Events Conditions
12:05 AM 75.2 °F - 66.2 °F 73% 30.12 in 10.0 mi SSW 3.5 mph - N/A   Scattered Clouds
12:25 AM 75.2 °F - 66.2 °F 73% 30.12 in 10.0 mi SSW 3.5 mph - N/A   Scattered Clouds
12:45 AM 73.4 °F - 66.2 °F 78% 30.12 in 10.0 mi Calm Calm - N/A   Clear
1:05 AM 73.4 °F - 68.0 °F 83% 30.12 in 10.0 mi WSW 5.8 mph - N/A   Clear
1:25 AM 73.4 °F - 69.8 °F 88% 30.12 in 10.0 mi WSW 6.9 mph - N/A   Mostly Cloudy
1:45 AM 73.4 °F - 69.8 °F 88% 30.11 in 10.0 mi WSW 5.8 mph - N/A   Overcast
2:05 AM 73.4 °F - 68.0 °F 83% 30.11 in 10.0 mi WSW 5.8 mph - N/A   Mostly Cloudy
2:25 AM 73.4 °F - 69.8 °F 88% 30.11 in 10.0 mi WSW 5.8 mph - N/A   Scattered Clouds
2:45 AM 73.4 °F - 68.0 °F 83% 30.10 in 10.0 mi SW 4.6 mph - N/A   Scattered Clouds
3:05 AM 73.4 °F - 68.0 °F 83% 30.10 in 10.0 mi WSW 4.6 mph - N/A   Clear
3:25 AM 71.6 °F - 68.0 °F 88% 30.10 in 10.0 mi WSW 4.6 mph - N/A   Clear
3:45 AM 71.6 °F - 68.0 °F 88% 30.10 in 10.0 mi Calm Calm - N/A   Clear
4:05 AM 71.6 °F - 68.0 °F 88% 30.10 in 10.0 mi Calm Calm - N/A   Clear
4:25 AM 71.6 °F - 68.0 °F 88% 30.11 in 10.0 mi WSW 5.8 mph - N/A   Clear
4:45 AM 71.6 °F - 68.0 °F 88% 30.11 in 10.0 mi WSW 4.6 mph - N/A   Clear
5:00 AM 71.6 °F - 68.0 °F 88% 30.11 in 10.0 mi Calm Calm - N/A   Clear
5:25 AM 73.4 °F - 68.0 °F 83% 30.11 in 10.0 mi Calm Calm - N/A   Clear
5:45 AM 71.6 °F - 68.0 °F 88% 30.11 in 10.0 mi Calm Calm - N/A   Clear
6:05 AM 71.6 °F - 68.0 °F 88% 30.12 in 10.0 mi Calm Calm - N/A   Clear
6:25 AM 71.6 °F - 68.0 °F 88% 30.12 in 10.0 mi Calm Calm - N/A   Clear
6:45 AM 71.6 °F - 68.0 °F 88% 30.12 in 10.0 mi Calm Calm - N/A   Clear
7:05 AM 73.4 °F - 68.0 °F 83% 30.12 in 10.0 mi Calm Calm - N/A   Clear
7:25 AM 73.4 °F - 68.0 °F 83% 30.12 in 10.0 mi Calm Calm - N/A   Clear
7:45 AM 73.4 °F - 69.8 °F 88% 30.13 in 10.0 mi Calm Calm - N/A   Clear
8:05 AM 75.2 °F - 68.0 °F 78% 30.13 in 10.0 mi Calm Calm - N/A   Clear
8:25 AM 75.2 °F - 69.8 °F 83% 30.13 in 10.0 mi Calm Calm - N/A   Clear
8:45 AM 75.2 °F - 69.8 °F 83% 30.13 in 10.0 mi Calm Calm - N/A   Clear
9:05 AM 77.0 °F - 69.8 °F 78% 30.13 in 10.0 mi Calm Calm - N/A   Clear
9:25 AM 78.8 °F - 71.6 °F 78% 30.13 in 10.0 mi SW 4.6 mph - N/A   Scattered Clouds
9:45 AM 78.8 °F - 71.6 °F 78% 30.13 in 10.0 mi SW 5.8 mph - N/A   Scattered Clouds
10:05 AM 78.8 °F - 71.6 °F 78% 30.14 in 10.0 mi SW 6.9 mph - N/A   Scattered Clouds
10:25 AM 77.0 °F - 69.8 °F 78% 30.14 in 10.0 mi SW 4.6 mph - N/A   Light Drizzle
10:45 AM 78.8 °F - 69.8 °F 74% 30.14 in 10.0 mi SW 3.5 mph - N/A   Scattered Clouds
11:05 AM 78.8 °F - 71.6 °F 78% 30.14 in 10.0 mi SW 6.9 mph - N/A   Scattered Clouds
11:25 AM 78.8 °F - 69.8 °F 74% 30.14 in 10.0 mi WSW 6.9 mph - N/A   Scattered Clouds
11:45 AM 80.6 °F 83.9 °F 69.8 °F 70% 30.14 in 10.0 mi WSW 6.9 mph - N/A   Scattered Clouds
12:05 PM 80.6 °F 83.9 °F 69.8 °F 70% 30.14 in 10.0 mi West 5.8 mph - N/A   Mostly Cloudy
12:25 PM 78.8 °F - 69.8 °F 74% 30.13 in 10.0 mi Calm Calm - N/A   Mostly Cloudy
12:45 PM 80.6 °F 83.9 °F 69.8 °F 70% 30.13 in 10.0 mi SSW 4.6 mph - N/A   Mostly Cloudy
1:05 PM 80.6 °F 83.9 °F 69.8 °F 70% 30.13 in 10.0 mi South 3.5 mph - N/A   Mostly Cloudy
1:25 PM 78.8 °F - 69.8 °F 74% 30.13 in 10.0 mi SW 8.1 mph - N/A   Overcast
1:50 PM 80.6 °F 84.6 °F 71.6 °F 74% 30.13 in 10.0 mi WSW 8.1 mph - N/A   Mostly Cloudy
2:10 PM 78.8 °F - 69.8 °F 74% 30.13 in 10.0 mi WSW 5.8 mph - N/A   Mostly Cloudy
2:30 PM 80.6 °F 83.9 °F 69.8 °F 70% 30.13 in 10.0 mi West 10.4 mph - N/A   Scattered Clouds
2:50 PM 78.8 °F - 71.6 °F 78% 30.12 in 10.0 mi West 6.9 mph - N/A   Mostly Cloudy
3:10 PM 77.0 °F - 71.6 °F 83% 30.12 in 7.0 mi WSW 8.1 mph - N/A Rain Light Rain
3:30 PM 73.4 °F - 69.8 °F 88% 30.11 in 5.0 mi SW 4.6 mph - 0.01 in Rain Light Rain
3:50 PM 73.4 °F - 69.8 °F 88% 30.10 in 10.0 mi South 3.5 mph - N/A   Overcast
4:10 PM 77.0 °F - 71.6 °F 83% 30.09 in 10.0 mi South 4.6 mph - N/A   Mostly Cloudy
4:30 PM 80.6 °F 84.6 °F 71.6 °F 74% 30.08 in 10.0 mi South 5.8 mph - N/A   Scattered Clouds
4:50 PM 82.4 °F 87.2 °F 71.6 °F 70% 30.08 in 10.0 mi South 6.9 mph - N/A   Mostly Cloudy
5:10 PM 82.4 °F 87.2 °F 71.6 °F 70% 30.07 in 10.0 mi SSW 5.8 mph - N/A   Mostly Cloudy
5:30 PM 82.4 °F 87.2 °F 71.6 °F 70% 30.06 in 10.0 mi South 5.8 mph - N/A   Mostly Cloudy
5:50 PM 84.2 °F 89.6 °F 71.6 °F 66% 30.05 in 10.0 mi South 6.9 mph - N/A   Mostly Cloudy
6:10 PM 82.4 °F 88.2 °F 73.4 °F 74% 30.05 in 10.0 mi SSW 8.1 mph - N/A   Scattered Clouds
6:30 PM 82.4 °F 88.2 °F 73.4 °F 74% 30.05 in 10.0 mi South 4.6 mph - N/A   Mostly Cloudy
6:50 PM 82.4 °F 88.2 °F 73.4 °F 74% 30.04 in 10.0 mi South 5.8 mph - N/A   Overcast
7:10 PM 80.6 °F 85.4 °F 73.4 °F 79% 30.05 in 10.0 mi South 4.6 mph - N/A   Overcast
7:30 PM 80.6 °F 85.4 °F 73.4 °F 79% 30.05 in 10.0 mi South 3.5 mph - N/A   Overcast
7:50 PM 82.4 °F 88.2 °F 73.4 °F 74% 30.05 in 10.0 mi South 4.6 mph - N/A   Mostly Cloudy
8:10 PM 80.6 °F 85.4 °F 73.4 °F 79% 30.05 in 10.0 mi South 3.5 mph - N/A   Scattered Clouds
8:30 PM 80.6 °F 85.4 °F 73.4 °F 79% 30.06 in 10.0 mi South 5.8 mph - N/A   Clear
8:50 PM 78.8 °F - 73.4 °F 83% 30.06 in 10.0 mi South 4.6 mph - N/A   Clear
9:10 PM 78.8 °F - 73.4 °F 83% 30.06 in 10.0 mi SSE 3.5 mph - N/A   Scattered Clouds
9:30 PM 78.8 °F - 73.4 °F 83% 30.07 in 10.0 mi South 4.6 mph - N/A   Scattered Clouds
9:50 PM 78.8 °F - 73.4 °F 83% 30.08 in 10.0 mi South 5.8 mph - N/A   Scattered Clouds
10:10 PM 78.8 °F - 73.4 °F 83% 30.08 in 10.0 mi South 5.8 mph - N/A   Scattered Clouds
10:30 PM 78.8 °F - 73.4 °F 83% 30.07 in 10.0 mi South 6.9 mph - N/A   Scattered Clouds
10:50 PM 77.0 °F - 73.4 °F 89% 30.07 in 10.0 mi South 3.5 mph - N/A   Scattered Clouds
11:10 PM 77.0 °F - 73.4 °F 89% 30.06 in 10.0 mi South 3.5 mph - N/A   Scattered Clouds
11:30 PM 77.0 °F - 73.4 °F 89% 30.06 in 10.0 mi South 4.6 mph - N/A   Clear
11:50 PM 77.0 °F - 71.6 °F 83% 30.06 in 10.0 mi South 4.6 mph - N/A   Clear